Probability
0 0 0 0 0 0 0 0 0 1 2 3 5 7 11 20 30 35 38 40 42 43 44 47 46 40 36 35 34 31 29 28 24 19 16 13 11 9 7 6 6 4 2 2
0 0 0 0 0 0 1 1 0 1 2 4 7 9 13 20 28 33 36 41 44 43 44 45 45 42 38 35 31 28 26 25 22 19 16 13 11 9 7 7 7 6 5 4
0 0 0 0 0 1 3 3 3 3 5 8 11 14 18 23 28 34 39 42 43 42 43 44 44 42 37 34 30 26 24 23 21 19 17 14 11 10 10 10 10 10 9 8
0 0 0 0 0 1 3 5 7 8 9 13 19 23 25 28 32 38 42 42 40 39 40 43 42 38 36 34 31 27 24 22 21 20 18 15 13 13 13 14 15 15 13 13
0 0 0 0 0 0 2 5 9 12 15 21 29 33 32 32 35 40 42 42 39 35 36 38 38 37 37 35 31 27 22 20 19 19 19 17 15 16 17 18 19 18 16 15
0 0 0 0 1 1 1 5 9 13 20 29 36 39 35 34 38 42 43 40 35 31 30 33 34 35 35 33 29 23 19 18 17 17 18 17 16 16 18 18 18 17 15 12
0 0 0 1 4 5 4 7 12 18 26 34 38 39 38 38 40 43 42 38 31 26 26 28 30 31 29 27 23 19 17 15 15 15 15 15 15 15 16 16 15 13 11 9
0 0 0 2 6 8 8 11 19 26 31 34 37 39 40 40 40 39 36 31 27 24 23 23 25 25 22 18 16 15 14 13 12 12 13 14 14 14 13 13 11 9 8 7
0 0 0 2 4 5 5 11 21 28 32 32 34 37 37 37 35 31 27 24 24 23 21 20 20 19 16 13 12 12 11 10 9 9 10 11 12 11 10 10 9 7 6 6
1 0 1 2 2 1 3 10 19 25 29 31 32 33 32 31 28 25 23 22 22 20 17 15 15 14 12 11 12 11 9 7 6 5 5 6 7 7 7 7 7 7 6 6
1 0 1 2 2 2 4 11 18 22 26 30 31 31 28 24 21 21 21 20 19 16 13 12 12 11 10 10 10 9 7 5 3 3 3 3 4 4 4 5 5 5 5 6
1 0 1 1 2 3 5 11 17 21 24 28 29 28 24 20 17 16 16 16 16 15 13 12 11 11 9 8 8 7 5 3 2 2 3 4 3 3 3 3 3 2 3 3
1 1 1 1 2 4 8 13 17 20 23 24 23 21 19 16 13 12 11 12 14 14 13 13 13 11 8 6 5 4 3 2 1 1 2 3 3 2 2 2 1 1 1 1
1 1 1 1 2 6 11 14 16 17 18 17 15 14 12 11 9 8 8 9 11 11 12 13 12 10 6 4 3 2 2 1 0 0 1 2 3 3 4 4 3 2 1 0
1 1 1 0 1 5 10 12 12 12 12 10 8 7 6 4 4 4 4 5 6 6 7 8 8 6 3 2 2 2 2 1 0 0 0 1 2 4 5 6 6 4 3 1
1 1 1 0 0 2 5 6 7 7 6 4 3 2 1 1 1 1 1 1 2 2 2 2 3 2 2 2 2 2 2 1 0 0 0 0 1 3 4 5 6 5 4 3
0 0 0 0 0 1 2 3 4 3 2 1 0 0 0 0 0 0 0 0 0 0 0 0 0 1 2 2 1 1 1 0 0 0 0 0 0 1 1 3 4 4 3 2
0 0 0 0 0 0 1 1 1 1 0 0 0 0 0 0 0 0 0 0 0 0 0 0 0 0 1 1 0 0 0 0 0 0 0 0 0 0 0 1 1 1 1 1
0 0 0 0 0 0 0 0 0 0 0 0 0 0 0 0 0 0 0 0 0 0 0 0 0 0 0 0 0 0 0 0 0 0 0 0 0 0 0 0 0 0 0 0
0 0 0 0 0 0 0 0 0 0 0 0 0 0 0 0 0 0 0 0 0 0 0 0 0 0 0 0 0 0 0 0 0 0 0 0 0 0 0 0 0 0 0 0
0 0 0 0 0 0 0 0 0 0 0 0 0 0 0 0 0 0 0 0 0 0 0 0 0 0 0 0 0 0 0 0 0 0 0 0 0 0 0 0 0 0 0 0
0 0 0 0 0 0 0 0 0 0 0 0 0 0 0 0 0 0 0 0 0 0 0 0 0 0 0 0 0 0 0 0 0 0 0 0 0 0 0 0 0 0 0 0
0 0 0 0 1 1 0 0 0 0 0 0 0 0 0 0 0 0 0 0 0 0 0 0 0 0 0 0 0 0 0 0 0 0 0 0 0 0 0 0 0 0 0 0
0 0 0 0 1 1 0 0 0 0 0 0 0 0 0 0 0 0 0 0 0 0 0 0 0 0 0 0 0 0 0 0 0 0 0 0 0 0 0 0 0 0 0 0
0 0 0 0 1 1 0 0 0 0 0 0 0 0 0 0 0 0 0 0 0 0 0 0 0 0 0 0 0 0 0 0 0 0 0 0 0 0 0 0 0 0 0 0
0 0 1 0 0 0 0 0 0 0 0 0 0 0 0 0 0 0 0 0 0 0 0 0 0 0 0 0 0 0 0 0 0 0 0 0 0 0 0 0 0 0 0 0
0 0 1 0 0 0 0 0 0 0 0 0 0 0 0 0 0 0 0 0 0 0 0 0 0 0 0 0 0 0 0 0 0 0 0 0 0 0 0 0 0 0 0 0
Wind_Speed
4 3 2 2 3 3 4 7 8 8 7 6 4 5 4 5 5 5 7 9 10 10 9 9 8 8 8 8 8 8 8 8 8 7 6 6 6 6 6 6 6 5 5 5
3 3 3 4 3 2 3 3 4 4 5 6 3 4 5 5 6 6 6 9 10 10 10 10 10 9 8 7 7 7 8 8 7 6 6 6 6 6 5 5 5 4 5 5
2 4 4 4 3 1 1 2 4 6 7 3 2 6 7 7 8 8 8 9 10 10 9 9 9 9 8 8 7 7 7 6 6 6 6 6 6 5 5 5 4 4 5 5
0 3 3 7 3 1 1 2 2 4 5 6 7 5 4 6 10 9 8 8 8 7 7 7 7 7 7 7 7 7 6 6 5 6 5 5 5 5 5 4 4 4 4 5
2 1 4 5 3 1 1 2 2 3 3 5 6 6 4 1 5 8 8 7 7 7 7 6 7 7 7 6 6 6 5 5 5 6 5 5 5 4 4 4 3 3 3 3
3 3 5 5 5 5 0 2 4 1 4 4 5 5 2 1 3 5 6 6 7 7 7 6 6 7 7 6 5 5 5 5 4 5 5 5 4 3 3 3 3 3 2 2
4 3 5 5 6 4 1 5 4 0 3 4 3 4 4 4 6 6 7 6 7 8 7 5 5 7 7 6 5 4 4 4 4 4 4 4 3 3 3 3 3 2 2 1
4 4 7 5 3 1 3 3 1 2 4 6 7 7 8 8 8 8 8 8 7 8 6 4 5 7 7 4 3 4 5 5 4 3 3 3 3 2 2 3 3 2 1 1
6 6 4 1 1 1 1 0 1 3 4 8 10 9 9 8 8 8 8 7 7 8 7 6 5 6 7 4 4 5 6 5 5 4 4 4 3 3 3 3 2 2 1 1
1 1 1 2 3 4 4 2 2 3 5 9 10 10 10 8 7 7 7 7 7 8 8 7 6 6 5 4 5 6 6 5 5 5 5 5 4 3 3 2 2 2 2 1
0 0 3 3 4 4 5 5 5 5 5 8 10 11 10 9 8 6 6 6 7 8 8 6 5 5 5 4 5 7 6 6 5 5 5 5 5 5 4 3 1 2 2 2
3 3 1 1 3 4 4 3 3 5 7 7 9 11 11 9 7 6 6 6 7 8 7 6 6 5 4 3 5 6 6 5 4 4 4 4 5 6 10 7 8 8 6 4
2 1 2 0 2 3 4 4 5 6 8 9 9 10 11 9 8 7 7 8 8 7 7 6 6 5 4 4 5 6 6 5 4 4 4 4 4 4 4 6 9 11 9 8
1 2 3 2 1 3 5 7 10 10 10 10 10 10 10 9 9 9 8 7 7 7 7 6 7 6 4 5 6 6 6 6 5 4 3 3 3 3 4 4 4 4 7 9
1 3 3 2 2 4 7 9 11 11 11 11 10 10 10 10 10 8 7 6 7 8 7 6 7 5 3 4 6 6 5 4 4 4 4 4 4 5 5 5 5 4 4 5
4 5 5 4 6 7 8 10 10 10 10 10 10 10 9 9 10 8 7 6 8 7 6 6 5 4 3 5 6 5 5 8 7 5 4 5 5 5 5 5 5 5 4 4
5 5 4 6 7 7 8 8 9 9 9 9 10 9 9 10 11 9 8 7 7 7 6 6 5 4 5 5 6 5 5 6 9 6 5 5 5 5 5 5 5 5 4 5
5 5 5 7 8 9 9 9 9 10 9 9 10 11 10 10 10 8 7 7 8 8 7 6 6 6 6 6 5 5 5 6 6 6 5 5 6 5 5 5 5 6 4 5
8 7 8 9 9 9 9 9 9 10 9 10 11 11 10 9 8 8 7 9 9 7 6 6 8 8 7 8 8 6 7 7 7 6 6 7 7 6 5 5 5 5 5 5
9 9 10 10 11 10 10 9 10 10 10 10 11 11 11 9 8 8 9 8 5 3 3 6 7 7 7 8 9 6 7 7 7 6 6 6 6 5 5 6 6 6 5 5
9 10 10 10 11 10 9 9 10 10 10 10 11 11 10 8 7 7 7 7 5 5 6 8 7 6 6 7 9 7 7 7 7 6 6 6 6 6 6 6 6 5 5 5
8 9 9 10 10 9 8 8 10 11 11 10 10 10 10 8 7 7 6 4 4 6 6 6 6 8 9 9 6 6 7 7 6 5 5 5 6 6 6 6 5 5 5 5
7 8 9 9 10 10 9 9 10 10 10 9 9 9 8 6 5 6 5 3 4 9 7 6 8 11 12 8 6 7 7 7 6 6 5 5 5 6 6 6 5 5 5 5
8 8 8 8 9 11 11 9 8 8 9 8 7 7 7 7 6 5 5 7 10 10 7 8 12 12 10 6 6 7 7 6 6 6 6 6 6 6 6 6 6 5 5 6
8 8 8 9 9 8 8 9 9 9 9 8 8 7 6 5 6 5 5 7 10 10 8 10 13 12 9 7 7 7 7 7 7 7 6 6 6 6 6 6 6 5 5 5
7 7 6 7 6 6 6 6 6 6 6 7 6 5 5 5 6 6 6 7 9 9 7 7 8 9 7 7 8 7 7 7 8 7 7 6 7 7 6 6 7 5 5 5
7 7 6 6 6 5 5 6 6 6 6 7 6 5 5 5 5 6 7 6 7 7 7 7 7 7 7 7 7 7 7 7 7 6 6 6 6 6 6 6 5 5 5 5
Wind_Direction
218 242 269 256 254 228 190 188 189 221 218 231 218 183 159 134 121 129 141 151 155 159 165 167 168 172 174 171 172 175 177 186 197 199 192 188 190 193 190 193 199 201 204 209
330 327 328 305 295 256 229 199 194 185 232 233 204 138 125 124 130 147 154 155 155 158 159 165 170 172 171 170 170 168 175 186 188 184 181 184 188 188 187 193 198 196 204 210
306 324 9 303 271 223 254 230 180 197 225 205 173 155 154 152 157 164 166 160 156 157 162 166 169 167 168 169 164 166 173 177 177 177 183 190 190 186 189 194 192 198 208 210
63 24 240 248 259 160 112 271 196 190 196 168 169 158 141 157 157 158 152 152 148 149 150 154 155 154 152 150 155 161 167 174 176 174 179 180 180 188 194 194 194 201 209 216
129 190 276 288 310 7 28 302 291 167 156 154 129 90 56 61 145 148 140 136 136 138 142 141 148 148 142 145 150 154 163 168 170 169 172 174 181 192 191 188 198 200 199 209
150 172 230 258 299 310 92 279 321 107 144 148 121 118 198 183 108 114 115 114 120 121 115 125 138 136 133 137 140 152 164 166 166 164 165 173 184 183 175 172 183 179 183 200
179 204 258 272 307 0 135 244 299 105 149 132 130 157 150 118 103 103 103 97 101 103 105 120 130 126 127 129 143 157 146 139 141 147 154 160 157 153 147 151 147 146 151 157
166 190 245 297 16 80 230 266 330 76 96 94 93 93 94 99 104 101 93 93 101 101 98 99 110 115 114 120 133 124 118 115 116 115 130 132 129 132 129 134 135 139 132 112
183 205 237 304 149 210 160 2 46 79 92 106 104 99 92 91 91 91 95 92 92 96 93 80 84 105 112 110 110 109 104 101 98 90 80 86 103 113 111 119 127 131 126 118
115 248 340 8 11 23 37 44 26 78 106 108 110 108 98 93 85 83 83 89 92 94 92 84 77 83 92 98 105 106 104 100 96 92 84 75 72 77 89 102 127 127 123 126
58 311 32 11 14 25 36 47 51 50 87 110 117 111 106 102 97 91 84 83 89 94 94 89 85 84 85 90 101 101 102 103 100 97 97 87 74 60 65 50 63 133 138 139
216 225 175 277 335 6 53 56 73 83 86 86 101 110 108 105 103 95 89 86 87 86 89 89 87 82 79 87 107 111 105 103 104 106 103 102 98 79 57 63 63 66 69 86
206 221 141 200 1 31 79 82 89 94 105 100 96 101 100 98 93 92 88 83 85 88 87 88 88 81 71 81 96 104 111 113 108 108 111 113 110 110 97 64 58 57 55 62
115 100 81 35 20 23 82 93 93 91 90 93 92 91 92 93 90 88 85 84 84 86 84 86 87 79 71 84 94 98 102 105 107 109 111 108 105 101 101 100 80 54 46 55
77 111 124 109 71 75 89 94 94 96 93 88 89 90 91 92 90 86 84 84 84 83 80 82 84 79 72 88 96 98 100 103 102 99 93 90 91 90 87 86 85 78 66 53
100 99 105 106 99 92 92 96 99 101 98 95 92 89 91 95 91 84 76 76 81 78 75 81 81 76 78 87 91 90 93 97 100 100 95 91 88 88 86 84 80 73 67 55
117 119 123 110 103 102 100 100 104 105 103 101 99 95 94 94 88 81 73 68 73 70 68 76 80 77 81 87 92 94 94 92 91 91 89 91 91 90 89 88 84 78 68 57
109 114 117 112 110 109 105 101 102 103 104 104 99 91 87 89 91 87 81 75 69 61 53 54 69 77 77 81 88 89 90 88 88 90 87 84 86 87 88 88 88 86 76 68
93 97 95 95 99 102 103 105 105 105 105 102 96 93 90 87 86 84 79 74 69 62 42 48 67 74 77 80 85 88 93 92 87 84 87 89 86 82 84 85 84 83 81 76
93 92 92 91 93 99 102 103 103 101 99 100 98 93 88 82 80 78 74 69 56 60 59 66 72 72 75 81 84 85 88 91 92 89 88 88 87 83 81 82 83 82 80 77
96 95 93 93 91 89 94 100 103 102 100 100 100 98 94 86 81 80 78 70 41 48 63 67 71 73 76 83 84 85 87 89 90 89 89 89 86 84 81 80 79 79 79 77
94 96 97 97 97 92 88 91 97 99 98 97 97 98 94 88 81 75 67 73 67 65 67 63 69 77 80 82 84 88 89 89 88 88 88 89 90 89 86 84 80 77 74 74
91 94 97 98 99 98 91 89 92 95 96 95 97 98 96 91 87 93 81 54 68 71 70 70 79 82 82 78 79 82 84 86 87 88 88 89 90 91 90 86 81 79 77 75
94 97 100 103 101 98 95 91 89 91 94 94 91 95 99 94 79 69 85 79 75 77 74 75 78 78 78 75 77 77 80 83 86 87 86 85 85 85 86 86 83 78 76 76
96 97 100 103 101 102 103 99 92 90 90 88 83 80 80 88 94 87 81 78 78 77 76 73 73 73 71 71 73 75 75 78 83 84 82 82 81 81 80 80 80 79 76 76
96 97 97 97 101 104 104 101 98 95 97 93 84 78 76 75 79 79 78 76 74 76 75 70 69 69 70 72 73 72 74 77 78 78 81 83 83 83 83 83 80 79 77 75
90 92 92 90 87 90 95 97 98 95 96 100 97 86 81 79 79 78 77 76 74 74 74 72 70 70 71 71 71 70 70 71 74 76 79 82 85 86 86 84 80 77 74 71